Temperature
20 18 18 18 19 20 19 19 19 20 20 19 18 18 18 18 18 18 18 18 18 18 18 18 17 17 16 16 15 15 14 14 14 14 13 13 13 13 13 13 13 13 13 13
18 18 19 19 19 19 19 19 19 20 20 19 18 18 18 17 17 18 18 18 19 18 18 18 17 16 16 16 15 14 14 14 13 13 13 13 13 13 13 13 13 13 12 12
19 19 20 20 19 19 19 19 20 20 20 19 19 19 18 18 18 18 18 19 19 19 18 18 17 16 16 15 15 14 14 13 13 13 13 13 13 13 13 13 12 12 12 12
19 19 20 20 20 20 19 20 20 20 19 18 19 17 18 17 17 17 17 18 18 19 18 18 17 16 16 15 15 14 14 13 13 13 13 13 13 13 12 12 12 12 12 12
19 19 20 20 20 20 20 20 20 19 18 18 18 17 17 17 17 17 17 18 18 19 18 18 17 17 16 15 14 14 14 13 13 13 13 13 12 12 12 12 12 12 12 12
19 19 20 20 20 20 19 18 17 16 16 17 18 17 17 16 17 17 17 18 19 19 18 18 17 16 16 15 14 14 14 13 13 13 13 13 12 12 12 12 12 12 12 12
19 20 20 20 20 20 19 18 17 18 16 17 17 17 16 17 17 17 17 18 19 19 18 18 17 16 16 15 15 14 14 13 13 13 13 13 12 12 12 12 12 12 12 12
19 19 20 20 20 19 19 18 18 18 17 16 17 17 17 18 18 18 19 19 19 19 18 18 17 17 16 15 15 14 14 14 13 13 13 13 13 12 12 12 12 12 12 12
18 19 20 21 21 19 18 17 17 16 17 17 16 17 17 18 18 18 18 18 19 19 19 18 17 17 16 15 15 14 14 14 13 13 13 13 13 13 12 12 12 12 12 12
19 19 20 21 20 19 18 15 15 16 17 17 17 17 17 18 18 17 16 17 19 19 19 18 17 17 16 16 15 15 14 14 14 13 13 13 13 13 12 12 12 12 12 12
19 19 20 20 21 20 18 17 15 14 15 16 17 17 17 17 17 17 17 19 20 19 19 18 18 17 16 16 15 15 14 14 14 13 13 13 13 13 13 12 12 12 12 12
18 17 18 19 20 20 20 18 16 17 16 14 15 16 17 17 17 17 18 20 20 20 19 19 18 17 16 16 15 15 15 14 14 14 13 13 13 13 13 13 13 12 12 12
18 17 18 19 19 20 20 18 16 14 13 13 15 17 17 17 17 18 19 20 20 20 19 19 18 17 17 16 16 15 15 15 14 14 13 13 13 13 13 13 13 13 13 12
17 17 18 19 19 19 20 19 16 16 15 14 14 16 18 18 17 18 19 20 20 20 19 19 18 17 17 16 16 15 15 15 14 14 14 13 13 13 13 13 13 13 13 13
18 18 19 18 19 19 20 19 17 17 16 16 16 16 17 17 17 19 20 20 20 20 19 19 18 18 17 17 16 16 15 15 15 14 14 14 13 13 13 13 13 13 13 13
17 18 19 19 20 19 19 19 18 17 17 16 17 17 17 18 19 19 19 19 19 20 20 19 19 18 17 17 16 16 16 15 15 15 14 14 14 13 13 13 13 13 13 13
16 17 18 18 18 19 19 19 18 18 17 17 17 18 18 17 17 19 20 20 21 21 20 20 19 18 18 17 17 16 16 15 15 15 14 14 14 14 13 13 13 13 13 13
16 15 15 16 18 19 18 19 19 18 18 17 17 18 17 18 20 21 22 22 21 21 20 20 19 19 18 17 17 16 16 15 15 15 15 14 14 14 14 14 13 13 13 13
15 15 14 15 17 17 18 19 18 18 19 18 17 18 18 19 19 20 22 22 22 21 21 20 19 19 18 18 17 16 16 16 15 15 15 15 14 14 14 14 14 14 13 13
14 14 14 14 18 18 19 20 20 19 20 19 18 17 17 17 16 18 22 22 21 21 20 20 19 19 18 18 17 16 16 16 15 15 15 15 14 14 14 14 14 14 13 13
16 14 14 14 16 16 17 18 19 19 19 21 20 20 18 18 20 22 22 22 21 21 20 20 19 19 18 18 17 17 16 16 16 15 15 15 15 14 14 14 14 14 13 13
15 15 14 13 15 17 18 18 18 19 21 21 21 22 21 22 22 22 22 21 21 20 20 19 19 18 18 17 17 17 16 16 15 15 15 15 15 14 14 14 14 14 13 13
14 14 13 14 16 18 18 19 21 21 21 22 22 23 22 22 22 22 21 21 21 20 20 19 19 18 18 17 17 17 16 16 15 15 15 15 15 14 14 14 14 14 14 13
14 13 13 13 14 17 19 20 21 21 21 22 22 23 22 22 22 22 21 21 20 20 19 19 18 18 18 17 17 16 16 16 15 15 15 15 15 14 14 14 14 14 13 13
15 13 13 14 15 17 21 22 21 21 22 22 22 22 22 22 22 21 21 21 20 20 19 19 18 18 17 17 16 16 16 15 15 15 15 15 14 14 14 14 13 13 13 13
12 14 14 15 17 16 19 21 21 21 21 22 22 22 22 22 22 21 21 20 20 19 19 18 18 17 17 17 16 16 15 15 15 15 15 14 14 14 13 13 13 13 12 12
Wind_Speed
5 5 5 9 8 4 5 5 5 5 4 6 7 8 7 5 7 8 8 7 7 7 4 3 3 3 2 1 0 1 2 3 2 2 2 3 3 4 4 3 5 5 5 4
5 4 7 6 6 5 4 4 5 4 2 5 4 6 5 5 7 8 9 9 8 6 4 4 4 3 2 2 2 2 3 3 2 2 2 2 3 3 3 4 5 5 5 5
7 5 6 7 6 6 4 6 5 3 2 2 2 6 4 2 2 3 5 6 7 8 8 6 5 4 3 3 3 3 3 3 3 3 2 2 2 3 4 4 5 5 6 5
4 3 5 6 6 7 5 6 5 3 3 2 1 3 6 3 3 4 5 6 7 7 7 6 6 5 5 5 3 3 3 3 3 2 2 2 2 2 3 3 4 6 5 4
4 4 5 6 6 8 4 2 3 2 4 1 1 2 8 3 4 7 7 8 8 8 8 8 8 7 5 4 3 3 3 3 3 2 2 2 2 2 3 4 5 5 5 4
1 2 3 4 2 4 5 6 6 6 5 1 3 4 7 5 7 5 6 8 8 8 8 7 5 4 4 3 3 2 2 3 3 2 2 2 3 4 4 5 5 5 4 4
2 1 1 3 4 3 5 5 4 4 3 5 3 3 8 6 7 7 7 9 8 8 8 7 7 6 5 5 4 3 3 4 3 3 3 3 3 3 3 4 4 4 4 4
3 2 3 3 5 6 5 7 6 4 4 5 2 5 7 6 4 4 5 6 7 8 7 8 8 8 6 6 5 4 4 4 4 3 4 3 3 2 3 3 3 4 3 4
5 3 2 2 2 8 6 3 5 6 2 1 5 7 8 2 0 1 3 5 8 8 8 8 7 7 7 6 6 5 4 4 4 3 3 3 3 3 3 3 3 3 4 4
5 2 2 0 5 5 5 8 6 5 4 2 6 5 5 7 7 5 5 7 8 7 7 7 7 7 7 6 5 4 4 4 4 3 3 2 3 3 3 3 4 4 4 4
3 3 2 2 3 6 5 5 6 5 5 5 3 7 7 8 8 9 9 9 9 9 9 8 7 7 6 5 4 4 4 3 3 3 3 3 3 3 3 3 4 4 4 4
3 4 0 3 3 2 5 7 7 5 4 5 4 8 7 7 8 8 8 8 7 8 7 7 6 5 5 5 5 5 4 4 4 3 2 3 3 3 3 4 4 4 4 4
5 5 3 5 5 1 2 4 5 6 6 6 5 7 5 3 5 7 7 7 6 7 7 5 5 5 6 6 5 5 4 4 3 2 2 3 3 3 4 4 4 4 4 5
5 4 5 6 6 4 3 5 6 6 5 6 8 9 8 7 7 7 7 7 7 7 7 7 6 6 6 6 5 5 5 4 3 2 2 2 3 3 4 4 4 4 4 4
5 3 4 6 5 4 5 6 7 8 9 9 9 9 12 10 9 8 7 6 6 7 7 8 8 7 6 6 5 5 4 3 3 2 2 3 3 3 3 3 4 4 4 4
3 3 1 3 2 3 4 7 8 8 6 8 7 10 11 7 4 5 7 8 9 9 9 9 9 8 8 7 7 6 5 4 3 3 3 3 2 2 3 3 3 3 4 4
3 5 3 4 5 3 6 8 8 7 8 9 10 12 6 5 8 9 10 10 11 11 10 10 10 9 9 8 8 7 6 4 4 3 3 3 2 2 3 3 3 3 4 3
7 5 4 1 2 5 9 5 6 7 8 10 9 8 7 9 7 6 8 10 11 10 9 9 8 8 7 7 6 6 4 4 4 4 3 3 3 3 3 2 3 4 3 3
5 7 5 3 3 7 10 5 6 6 8 7 9 8 4 2 2 4 7 9 10 10 9 8 8 7 7 7 7 6 5 4 4 4 4 4 3 3 3 3 4 3 2 3
5 5 6 4 3 6 9 5 3 4 6 6 7 7 5 7 3 6 6 7 8 7 6 6 6 6 6 6 7 7 6 5 5 6 5 4 4 4 4 4 4 2 2 3
2 3 4 5 5 8 9 4 4 3 7 5 6 7 10 10 8 5 4 6 7 6 6 7 7 6 6 6 8 7 6 6 7 5 4 3 3 4 4 4 3 2 3 3
7 6 5 5 4 8 5 4 7 8 4 3 5 7 9 8 4 3 5 6 7 7 7 8 7 5 4 6 8 7 6 6 4 3 3 3 3 3 2 3 3 2 2 3
7 8 7 9 8 6 3 7 6 4 5 5 5 6 7 6 6 6 6 7 7 7 7 7 8 6 4 5 7 7 5 4 4 3 2 2 2 2 2 2 3 2 2 2
4 3 4 5 9 8 8 7 6 6 7 7 6 5 7 8 7 7 6 6 7 6 7 7 8 7 5 4 5 5 3 4 5 3 2 1 1 2 2 1 1 2 2 2
5 5 3 6 9 9 8 6 5 4 5 5 5 6 8 8 7 8 7 7 7 7 6 7 8 8 6 5 4 3 3 5 5 3 2 1 1 1 1 1 1 2 2 2
6 7 6 8 8 5 9 8 5 6 7 7 5 4 5 8 8 7 7 7 7 8 7 7 7 7 6 6 4 3 3 5 5 3 2 1 1 1 1 1 2 2 1 3
Wind_Direction
128 116 170 192 186 179 173 190 236 247 197 177 221 253 263 212 202 210 210 205 208 214 217 187 176 164 138 136 286 303 319 322 344 346 335 329 322 319 325 322 329 331 328 319
97 186 198 169 159 156 172 210 252 278 167 184 243 273 274 217 211 210 206 205 204 202 194 189 186 178 184 216 244 274 292 306 312 299 285 271 282 294 294 312 331 340 337 331
159 197 164 150 159 164 196 203 222 232 54 50 7 318 306 295 241 209 197 197 196 195 196 198 195 205 212 233 239 255 273 293 308 322 333 339 343 335 340 340 338 333 334 333
159 189 157 155 180 170 225 224 203 170 106 308 67 289 292 298 291 238 213 195 198 197 191 195 199 211 222 235 243 254 271 291 308 335 354 352 342 324 300 302 308 319 332 335
181 174 161 181 200 176 198 69 115 113 133 15 20 180 287 316 266 251 228 210 204 199 193 199 205 214 226 232 236 249 274 293 310 327 338 342 322 297 303 312 326 333 333 335
153 206 193 194 147 148 122 74 59 53 75 325 243 180 278 243 231 245 223 207 202 198 198 206 212 212 231 235 242 252 274 288 307 323 330 323 313 317 327 330 336 335 331 332
24 320 242 144 109 89 101 96 39 5 10 258 268 202 251 256 243 228 218 208 199 193 192 201 207 212 225 234 238 245 261 280 298 312 313 307 303 307 306 311 320 325 328 325
141 262 230 190 172 157 151 140 155 197 228 277 317 241 258 265 274 236 206 189 185 192 199 207 212 214 223 234 235 237 250 269 290 298 302 308 311 303 297 300 301 307 305 304
159 237 279 201 151 129 131 153 155 132 153 298 290 290 304 253 294 143 162 173 196 204 207 213 217 217 222 231 232 228 239 261 277 284 298 308 314 311 307 308 308 309 309 314
147 179 319 74 87 43 131 141 106 115 140 273 301 288 258 252 239 227 213 214 218 213 213 217 218 219 222 226 233 231 232 245 261 275 287 300 306 311 313 320 324 324 323 328
125 131 340 60 166 170 118 101 102 106 142 154 265 277 231 227 220 217 224 222 216 211 211 214 218 219 218 222 225 231 239 248 263 269 281 305 311 319 328 328 321 324 328 332
133 117 262 274 280 203 176 164 148 149 192 167 182 268 267 243 235 219 226 228 218 212 209 208 209 205 208 219 224 229 237 241 246 254 275 296 312 324 330 326 324 331 331 331
139 114 62 357 348 6 144 144 142 125 118 152 177 262 292 279 236 224 225 227 217 209 203 198 197 202 213 221 226 230 234 238 244 243 267 299 312 319 316 316 323 331 335 337
122 122 164 195 223 221 217 173 155 136 152 197 220 248 283 267 243 235 227 222 209 205 200 197 204 212 217 222 225 228 235 233 230 223 244 280 292 301 305 314 325 331 336 340
123 174 215 236 241 215 226 216 184 189 192 195 228 230 250 243 232 229 220 208 198 203 204 204 208 212 213 219 224 223 229 230 211 207 238 265 286 305 314 322 327 333 339 340
120 169 177 299 296 232 253 249 214 215 208 217 238 255 250 243 214 221 214 199 204 212 211 210 209 207 209 211 214 213 219 218 189 203 239 265 293 309 311 313 320 331 333 336
150 145 137 273 310 5 280 245 211 214 208 191 216 240 239 209 214 216 211 203 210 212 209 205 205 205 206 205 201 204 210 193 185 211 239 257 271 289 297 310 326 322 318 327
149 135 144 213 21 254 247 254 207 218 239 214 226 241 220 217 223 225 204 199 210 209 204 203 200 201 204 196 191 191 178 176 192 217 240 251 255 271 291 309 309 305 305 308
148 139 130 138 220 277 294 277 190 198 265 224 218 239 226 168 74 294 219 200 206 204 198 197 192 190 184 183 179 164 168 177 194 222 238 241 235 251 271 282 286 285 296 300
75 103 123 139 182 246 256 264 194 147 282 253 199 210 173 131 156 253 222 192 198 190 183 178 168 160 168 177 159 159 174 182 211 227 235 237 228 234 250 261 268 270 275 286
99 92 145 170 214 259 256 264 135 154 248 258 199 195 171 184 205 224 179 175 175 170 167 157 151 158 174 162 154 165 176 205 223 225 228 232 231 236 245 259 263 270 285 304
186 172 186 156 191 253 258 152 180 220 254 237 208 194 191 211 219 188 177 172 162 155 151 149 149 155 152 151 157 168 198 222 212 197 212 236 246 251 250 251 272 277 285 303
200 193 188 189 214 240 242 222 248 250 253 244 219 212 192 198 206 189 182 175 168 162 156 151 149 144 140 153 159 173 210 202 172 170 205 241 263 266 265 251 269 283 279 282
260 177 174 245 267 263 261 255 260 239 242 255 236 213 187 197 199 188 180 176 170 165 160 152 145 147 157 165 170 188 190 157 150 163 200 232 261 288 294 270 256 258 271 273
240 179 213 259 278 302 297 262 260 265 257 254 242 218 204 192 196 190 185 183 178 168 160 156 158 161 168 164 171 181 159 147 150 163 183 211 240 270 291 293 251 239 255 224
209 195 205 240 245 241 274 284 280 272 265 249 231 230 217 196 196 189 187 183 173 168 159 157 161 162 163 157 161 165 159 155 154 159 181 194 206 246 279 311 338 331 295 7
Height
1494 1501 1507 1506 1505 1508 1511 1515 1517 1512 1506 1510 1513 1512 1508 1508 1509 1510 1511 1513 1515 1516 1518 1520 1521 1521 1521 1521 1520 1518 1517 1515 1513 1511 1509 1507 1506 1504 1502 1500 1498 1497 1495 1493
1499 1503 1499 1499 1503 1506 1510 1515 1515 1510 1506 1509 1512 1511 1506 1505 1506 1506 1508 1510 1512 1514 1516 1518 1519 1520 1520 1520 1519 1518 1516 1515 1513 1511 1509 1507 1505 1503 1501 1499 1497 1495 1494 1492
1498 1498 1496 1499 1504 1508 1510 1512 1512 1511 1510 1510 1512 1514 1509 1505 1504 1505 1507 1508 1510 1512 1514 1516 1517 1518 1519 1519 1518 1517 1516 1514 1512 1510 1508 1506 1504 1502 1500 1498 1496 1495 1493 1491
1496 1494 1495 1499 1503 1504 1511 1503 1505 1508 1516 1522 1518 1530 1513 1508 1505 1504 1505 1506 1508 1511 1513 1515 1516 1517 1518 1518 1517 1516 1515 1513 1512 1510 1508 1506 1504 1501 1499 1497 1495 1494 1492 1490
1496 1494 1496 1499 1498 1499 1503 1501 1505 1509 1516 1524 1522 1529 1520 1509 1507 1503 1502 1504 1506 1509 1511 1513 1515 1516 1517 1517 1516 1515 1514 1513 1511 1510 1508 1505 1503 1501 1499 1497 1495 1493 1491 1489
1494 1493 1493 1494 1494 1496 1500 1506 1512 1519 1524 1533 1523 1529 1524 1513 1505 1501 1500 1501 1504 1507 1510 1512 1514 1515 1515 1515 1515 1514 1513 1512 1511 1509 1507 1505 1503 1501 1499 1497 1495 1492 1490 1489
1497 1494 1492 1492 1497 1499 1503 1516 1530 1532 1540 1536 1523 1526 1520 1503 1499 1498 1497 1499 1502 1505 1508 1510 1512 1513 1514 1514 1514 1513 1512 1511 1510 1508 1507 1505 1503 1501 1499 1496 1494 1492 1490 1488
1504 1505 1493 1491 1494 1499 1504 1511 1530 1539 1542 1536 1525 1526 1511 1498 1495 1495 1496 1498 1500 1503 1506 1508 1510 1511 1512 1513 1513 1512 1511 1510 1509 1508 1506 1505 1503 1501 1499 1497 1494 1492 1490 1488
1503 1503 1491 1489 1490 1495 1506 1512 1513 1528 1532 1536 1530 1519 1504 1495 1495 1495 1495 1497 1499 1501 1504 1506 1508 1510 1511 1511 1511 1511 1510 1510 1508 1507 1506 1504 1502 1501 1499 1497 1495 1492 1490 1488
1495 1502 1493 1491 1492 1496 1500 1509 1520 1529 1538 1541 1532 1524 1516 1499 1496 1495 1495 1496 1497 1499 1502 1504 1506 1507 1509 1510 1510 1510 1510 1509 1508 1506 1505 1504 1502 1501 1499 1497 1495 1492 1490 1488
1492 1501 1500 1495 1496 1499 1504 1510 1519 1529 1531 1541 1540 1528 1500 1495 1492 1492 1492 1493 1494 1497 1499 1501 1504 1505 1507 1508 1508 1509 1508 1508 1507 1506 1505 1503 1502 1500 1499 1497 1495 1492 1490 1488
1493 1502 1507 1499 1492 1491 1494 1502 1512 1522 1528 1535 1538 1526 1491 1490 1488 1489 1489 1491 1492 1495 1497 1499 1501 1503 1505 1506 1507 1507 1507 1506 1506 1505 1504 1503 1501 1500 1498 1496 1494 1492 1490 1488
1493 1503 1512 1510 1506 1496 1496 1500 1505 1514 1526 1537 1535 1519 1489 1487 1486 1486 1487 1488 1490 1492 1495 1497 1499 1501 1502 1504 1505 1505 1505 1505 1505 1504 1503 1502 1501 1499 1498 1496 1494 1492 1490 1488
1489 1500 1507 1512 1506 1498 1497 1499 1504 1510 1522 1527 1523 1509 1492 1487 1485 1484 1485 1486 1488 1490 1492 1494 1496 1498 1500 1502 1503 1503 1504 1504 1503 1503 1502 1501 1500 1499 1497 1496 1494 1492 1490 1488
1489 1498 1497 1496 1493 1494 1494 1494 1499 1503 1505 1511 1505 1502 1489 1483 1481 1481 1482 1484 1485 1487 1489 1491 1494 1496 1498 1499 1500 1501 1502 1502 1502 1502 1501 1500 1500 1498 1497 1495 1494 1492 1490 1488
1489 1494 1495 1495 1491 1492 1493 1490 1493 1495 1496 1498 1495 1493 1478 1477 1478 1478 1479 1481 1482 1484 1486 1488 1491 1493 1495 1496 1498 1499 1500 1501 1501 1500 1500 1500 1499 1498 1496 1495 1494 1492 1490 1489
1492 1495 1500 1504 1496 1492 1497 1486 1486 1487 1485 1487 1490 1481 1473 1475 1474 1474 1475 1477 1479 1481 1483 1485 1488 1490 1492 1494 1496 1497 1498 1499 1499 1499 1499 1498 1498 1497 1496 1494 1493 1492 1490 1489
1490 1496 1504 1506 1500 1505 1491 1475 1476 1479 1477 1476 1474 1470 1470 1469 1470 1471 1472 1474 1475 1478 1480 1483 1485 1487 1489 1491 1493 1495 1496 1497 1497 1497 1497 1497 1497 1496 1495 1494 1493 1491 1490 1488
1484 1493 1504 1510 1507 1502 1485 1473 1474 1477 1475 1467 1468 1466 1467 1468 1469 1469 1469 1471 1473 1475 1477 1480 1483 1485 1487 1489 1491 1492 1494 1495 1495 1495 1496 1496 1495 1495 1494 1493 1492 1491 1489 1488
1487 1490 1501 1509 1505 1505 1484 1469 1468 1472 1475 1462 1462 1463 1465 1467 1474 1469 1466 1468 1471 1473 1475 1478 1480 1482 1485 1487 1488 1490 1491 1492 1493 1494 1494 1494 1494 1493 1492 1492 1491 1490 1489 1488
1491 1496 1501 1506 1505 1495 1472 1466 1468 1481 1476 1459 1458 1459 1461 1462 1463 1463 1464 1466 1469 1471 1473 1475 1478 1480 1482 1484 1486 1487 1489 1490 1491 1492 1492 1492 1492 1491 1491 1490 1490 1489 1488 1486
1490 1495 1500 1504 1504 1494 1465 1466 1470 1467 1458 1457 1456 1456 1457 1458 1460 1461 1462 1464 1466 1469 1471 1473 1475 1478 1480 1482 1484 1485 1486 1488 1489 1489 1490 1490 1490 1489 1489 1488 1488 1487 1486 1485
1484 1482 1484 1486 1480 1466 1463 1462 1460 1459 1458 1456 1455 1455 1456 1457 1458 1459 1461 1462 1465 1467 1469 1471 1473 1475 1478 1479 1481 1483 1484 1485 1486 1487 1487 1487 1487 1487 1487 1486 1486 1485 1484 1483
1476 1475 1477 1477 1467 1460 1459 1458 1456 1456 1455 1454 1454 1454 1454 1455 1456 1457 1459 1460 1462 1464 1467 1469 1471 1473 1475 1477 1479 1480 1482 1483 1484 1484 1484 1485 1485 1485 1484 1483 1483 1482 1481 1480
1471 1473 1474 1472 1463 1458 1454 1454 1453 1453 1452 1452 1451 1452 1452 1453 1453 1455 1456 1458 1460 1462 1464 1466 1468 1470 1472 1474 1476 1478 1479 1480 1481 1481 1482 1482 1482 1482 1481 1481 1480 1479 1478 1477
1466 1467 1470 1466 1458 1458 1454 1452 1451 1450 1449 1448 1448 1448 1449 1450 1450 1452 1453 1455 1457 1459 1461 1463 1465 1468 1470 1471 1473 1475 1476 1477 1478 1478 1479 1479 1479 1479 1479 1478 1478 1477 1476 1475